Weather History for Camdenton, MO

Change the Weather History Date:

Monday, January 14, 2013

  Actual Average (KAIZ) Record (KAIZ)
Temperature  
Mean Temperature 22 °F -  
Max Temperature 28 °F 38 °F 55 °F (2004)
Min Temperature 15 °F 21 °F 1 °F (1997)
Degree Days  
Heating Degree Days 44    
Moisture  
Dew Point 17 °F    
Average Humidity 85    
Maximum Humidity 100    
Minimum Humidity 68    
Precipitation  
Precipitation 0.00 in - - ()
Sea Level Pressure  
Sea Level Pressure 30.40 in    
Wind  
Wind Speed 0 mph (NE)    
Max Wind Speed 4 mph    
Max Gust Speed -    
Visibility 10 miles    
Events      
Averages and records for this station are not official NWS values.
T = Trace of Precipitation, MM = Missing Value Source: NWS Daily Summary

Daily Weather History Graph

Daily Weather History Graph

Search for Another Location

Airport:

Trip Planner

Search our weather history database for the weather conditions in past years. The results will help you decide how hot, cold, wet, or windy it might be!

Date:

Astronomy

Jan. 14, 2013 Rise Set
Actual Time 7:25 AM CST 5:14 PM CST
Civil Twilight 6:56 AM CST 5:43 PM CST
Nautical Twilight 6:24 AM CST 6:15 PM CST
Astronomical Twilight 5:52 AM CST 6:47 PM CST
Moon 9:03 AM CST (1/14) 8:56 PM CST (1/14)
Length of Visible Light 10h 46m
Length of Day
9h 48m
Waxing Crescent, 11% of the Moon is Illuminated
Jan 14
Waxing Crescent
Jan 18
First Quarter
Jan 26
Full
Feb 3
Last Quarter
Feb 10
New

Hourly Weather History & Observations

Time (CST) Temp. Windchill Dew Point Humidity Pressure Visibility Wind Dir Wind Speed Gust Speed Precip Events Conditions
12:15 AM 17.6 °F - 15.8 °F 93% 30.36 in 10.0 mi Calm Calm - N/A   Clear
12:35 AM 17.6 °F - 15.8 °F 93% 30.37 in 10.0 mi Calm Calm - N/A   Clear
12:55 AM 17.6 °F - 14.0 °F 86% 30.38 in 10.0 mi Calm Calm - N/A   Clear
1:15 AM 17.6 °F - 15.8 °F 93% 30.39 in 10.0 mi Calm Calm - N/A   Clear
1:35 AM 17.6 °F - 15.8 °F 93% 30.40 in 10.0 mi Calm Calm - N/A   Clear
1:55 AM 17.6 °F - 14.0 °F 86% 30.41 in 10.0 mi Calm Calm - N/A   Clear
2:15 AM 17.6 °F - 14.0 °F 86% 30.41 in 10.0 mi Calm Calm - N/A   Clear
2:35 AM 17.6 °F - 14.0 °F 86% 30.40 in 10.0 mi Calm Calm - N/A   Clear
2:55 AM 17.6 °F - 14.0 °F 86% 30.40 in 10.0 mi Calm Calm - N/A   Clear
4:15 AM 15.8 °F - 14.0 °F 93% 30.39 in 10.0 mi Calm Calm - N/A   Clear
4:35 AM 15.8 °F - 15.8 °F 100% 30.39 in 10.0 mi Calm Calm - N/A   Clear
4:55 AM 15.8 °F - 15.8 °F 100% 30.38 in 10.0 mi Calm Calm - N/A   Clear
5:15 AM 17.6 °F - 17.6 °F 100% 30.38 in 7.0 mi Calm Calm - N/A   Clear
5:35 AM 17.6 °F 12.3 °F 17.6 °F 100% 30.38 in 7.0 mi NW 3.5 mph - N/A   Clear
6:15 AM 15.8 °F - 15.8 °F 100% 30.37 in 10.0 mi Calm Calm - N/A   Clear
6:35 AM 15.8 °F - 14.0 °F 93% 30.38 in 10.0 mi Calm Calm - N/A   Clear
6:55 AM 15.8 °F - 14.0 °F 93% 30.40 in 10.0 mi Calm Calm - N/A   Clear
7:15 AM 15.8 °F - 14.0 °F 93% 30.40 in 10.0 mi Calm Calm - N/A   Clear
7:35 AM 17.6 °F - 15.8 °F 93% 30.40 in 10.0 mi Calm Calm - N/A   Clear
8:15 AM 17.6 °F - 15.8 °F 93% 30.43 in 10.0 mi Calm Calm - N/A   Clear
9:35 AM 19.4 °F - 14.0 °F 80% 30.46 in 10.0 mi Calm Calm - N/A   Clear
9:55 AM 19.4 °F - 14.0 °F 80% 30.46 in 10.0 mi Calm Calm - N/A   Clear
10:15 AM 21.2 °F - 15.8 °F 80% 30.46 in 10.0 mi Calm Calm - N/A   Clear
10:35 AM 21.2 °F - 14.0 °F 74% 30.47 in 10.0 mi Calm Calm - N/A   Clear
10:55 AM 21.2 °F 16.4 °F 14.0 °F 74% 30.47 in 10.0 mi NE 3.5 mph - N/A   Clear
11:15 AM 23.0 °F - 14.0 °F 68% 30.47 in 10.0 mi Calm Calm - N/A   Clear
11:35 AM 23.0 °F - 14.0 °F 68% 30.47 in 10.0 mi Calm Calm - N/A   Clear
11:55 AM 23.0 °F - 17.6 °F 80% 30.46 in 10.0 mi Calm Calm - N/A   Clear
12:15 PM 23.0 °F - 14.0 °F 68% 30.45 in 10.0 mi Calm Calm - N/A   Clear
12:35 PM 26.6 °F - 17.6 °F 69% 30.43 in 10.0 mi Calm Calm - N/A   Clear
12:55 PM 26.6 °F 22.6 °F 17.6 °F 69% 30.42 in 10.0 mi ENE 3.5 mph - N/A   Clear
1:15 PM 26.6 °F - 17.6 °F 69% 30.41 in 10.0 mi Calm Calm - N/A   Clear
1:35 PM 26.6 °F - 19.4 °F 74% 30.40 in 10.0 mi Calm Calm - N/A   Scattered Clouds
2:15 PM 28.4 °F 24.6 °F 19.4 °F 69% 30.39 in 10.0 mi East 3.5 mph - N/A   Mostly Cloudy
2:55 PM 28.4 °F - 19.4 °F 69% 30.39 in 10.0 mi Calm Calm - N/A   Mostly Cloudy
3:15 PM 26.6 °F - 19.4 °F 74% 30.39 in 10.0 mi Calm Calm - N/A   Scattered Clouds
3:35 PM 26.6 °F - 19.4 °F 74% 30.39 in 10.0 mi Calm Calm - N/A   Clear
3:55 PM 26.6 °F - 19.4 °F 74% 30.39 in 10.0 mi Calm Calm - N/A   Clear
4:15 PM 28.4 °F - 21.2 °F 74% 30.39 in 10.0 mi Calm Calm - N/A   Scattered Clouds
4:35 PM 26.6 °F - 19.4 °F 74% 30.39 in 10.0 mi Calm Calm - N/A   Scattered Clouds
4:55 PM 26.6 °F - 19.4 °F 74% 30.39 in 10.0 mi Calm Calm - N/A   Clear
5:15 PM 24.8 °F - 17.6 °F 74% 30.39 in 10.0 mi Calm Calm - N/A   Clear
5:35 PM 23.0 °F - 17.6 °F 80% 30.39 in 10.0 mi Calm Calm - N/A   Clear
5:55 PM 23.0 °F - 17.6 °F 80% 30.38 in 10.0 mi Calm Calm - N/A   Clear
6:15 PM 23.0 °F - 17.6 °F 80% 30.38 in 10.0 mi Calm Calm - N/A   Clear
6:35 PM 23.0 °F - 17.6 °F 80% 30.38 in 10.0 mi Calm Calm - N/A   Clear
6:55 PM 21.2 °F - 17.6 °F 86% 30.38 in 10.0 mi Calm Calm - N/A   Clear
7:15 PM 21.2 °F - 17.6 °F 86% 30.38 in 10.0 mi Calm Calm - N/A   Clear
7:35 PM 21.2 °F - 17.6 °F 86% 30.38 in 10.0 mi Calm Calm - N/A   Clear
7:55 PM 21.2 °F - 19.4 °F 93% 30.38 in 10.0 mi Calm Calm - N/A   Clear
8:15 PM 21.2 °F - 19.4 °F 93% 30.38 in 10.0 mi Calm Calm - N/A   Clear
8:35 PM 21.2 °F - 19.4 °F 93% 30.38 in 10.0 mi Calm Calm - N/A   Clear
8:55 PM 21.2 °F - 19.4 °F 93% 30.37 in 10.0 mi Calm Calm - N/A   Clear
9:15 PM 21.2 °F - 19.4 °F 93% 30.36 in 10.0 mi Calm Calm - N/A   Clear
9:35 PM 21.2 °F - 19.4 °F 93% 30.37 in 10.0 mi Calm Calm - N/A   Clear
10:15 PM 19.4 °F - 19.4 °F 100% 30.38 in 10.0 mi Calm Calm - N/A   Clear
10:35 PM 19.4 °F - 19.4 °F 100% 30.38 in 10.0 mi Calm Calm - N/A   Clear
10:55 PM 19.4 °F - 17.6 °F 93% 30.38 in 10.0 mi Calm Calm - N/A   Clear
11:15 PM 19.4 °F - 17.6 °F 93% 30.38 in 10.0 mi Calm Calm - N/A   Clear
11:35 PM 19.4 °F - 17.6 °F 93% 30.38 in 10.0 mi Calm Calm - N/A   Clear
11:55 PM 19.4 °F - 17.6 °F 93% 30.38 in 10.0 mi Calm Calm - N/A   Clear